Location: Emporia
(38.4040°N, 96.1810°W)
Time: 07:48:48
(UTC-05:00)

Amateur Radio Satellites - All Passes

Search period start: 31 October 2014 07:18
Search period end: 01 November 2014 07:18
Location: Emporia, 38.4040°N, 96.1810°W

Satellite Date Start Highest point End Downlink Frequencies (MHz)
Time Altitude Azimuth
Saudisat 1A 31 Oct 07:22:32 07:26:26 31° 309° (NW) 07:30:22 436.775 MHz
JAS-2 31 Oct 07:27:29 07:35:15 64° 288° (WNW) 07:42:44 435.800 - 435.900 CW/SSB, 435.910 FM
PANSAT 31 Oct 07:28:04 07:30:35 17° 187° (S) 07:33:07 not established
AO-7 31 Oct 07:46:42 07:52:45 23° 305° (NW) 07:58:49 29.400 - 29.500 MHz
SO-67 31 Oct 07:53:48 07:56:41 25° 96° (E) 07:59:34 435.3500 MHz FM
Hamsat 31 Oct 08:26:33 08:29:02 15° 293° (WNW) 08:31:32 145.90 MHz
STRAND 1 31 Oct 08:30:13 08:34:18 24° 265° (W) 08:38:25 ?
RS-15 31 Oct 08:38:20 08:48:18 39° 253° (WSW) 08:58:42 29.354 - 29.394 USB, Beacon 29.352 USB
MaSat-1 31 Oct 08:48:57 08:51:16 39° 249° (WSW) 08:53:28 437.345 MHz
JAS-2 31 Oct 09:15:33 09:18:44 13° 307° (NW) 09:21:55 435.800 - 435.900 CW/SSB, 435.910 FM
SO-67 31 Oct 09:27:16 09:29:26 16° 291° (WNW) 09:31:36 435.3500 MHz FM
ISS 31 Oct 09:38:12 09:40:13 15° 129° (SE) 09:42:15 145.800 FM
KITSAT 1 31 Oct 09:44:35 09:48:11 14° 99° (E) 09:51:46 435.175 FM
HO-68 31 Oct 10:24:55 10:32:08 72° 104° (ESE) 10:39:17 435.675 MHz FM
UKube-1 31 Oct 10:30:57 10:34:44 28° 97° (E) 10:38:30 145.840 MHz, 145.915 MHz
PCSat 31 Oct 10:33:46 10:35:49 12° 41° (NE) 10:37:52 145.825 MHz
ZACube-1 31 Oct 10:40:48 10:43:00 14° 92° (E) 10:45:11 437.345 MHz
Oscar 11 31 Oct 11:05:39 11:09:58 73° 102° (ESE) 11:14:15 145.825 FM, Beacon 2401.500 USB
SO-50 31 Oct 11:10:45 11:14:44 33° 113° (ESE) 11:18:49 436.795 FM
ISS 31 Oct 11:13:22 11:16:36 50° 325° (NW) 11:19:52 145.800 FM
FUNcube-1 31 Oct 11:22:14 11:26:14 43° 99° (E) 11:30:10 145.950 - 145.970 MHz USB
KITSAT 1 31 Oct 11:34:13 11:42:17 80° 116° (ESE) 11:50:23 435.175 FM
Sapphire 31 Oct 11:53:14 11:58:25 44° 57° (ENE) 12:03:34 437.095 MHz 1200 baud AX-25 AFSK
UKube-1 31 Oct 12:07:18 12:10:46 24° 292° (WNW) 12:14:14 145.840 MHz, 145.915 MHz
HO-68 31 Oct 12:13:57 12:19:06 22° 302° (WNW) 12:24:15 435.675 MHz FM
PCSat 31 Oct 12:14:47 12:20:13 72° 61° (ENE) 12:25:37 145.825 MHz
ZACube-1 31 Oct 12:15:40 12:19:37 41° 287° (WNW) 12:23:31 437.345 MHz
Oscar 16 31 Oct 12:34:37 12:34:46 10° 59° (ENE) 12:34:55 437.025 USB, Beacon 2401.1428
SO-50 31 Oct 12:51:27 12:55:17 27° 311° (NW) 12:59:14 436.795 FM
ISS 31 Oct 12:52:24 12:53:56 13° 343° (NNW) 12:55:28 145.800 FM
FUNcube-1 31 Oct 12:59:56 13:02:14 15° 294° (WNW) 13:04:30 145.950 - 145.970 MHz USB
AO-Echo 31 Oct 13:08:51 13:10:06 11° 59° (ENE) 13:11:21 ?
Oscar 19 31 Oct 13:21:58 13:26:23 30° 68° (ENE) 13:30:47 437.125 CW, 437.150 USB
KITSAT 1 31 Oct 13:32:05 13:38:33 26° 317° (NW) 13:45:03 435.175 FM
JAS-1B 31 Oct 13:34:00 13:39:14 37° 68° (ENE) 13:44:25 435.800 - 435.900 CW/SSB
UOSAT-12 31 Oct 13:34:17 13:38:54 88° 120° (ESE) 13:43:38 437.025 FM, 437.400 FM
Sapphire 31 Oct 13:37:15 13:41:32 24° 253° (WSW) 13:45:48 437.095 MHz 1200 baud AX-25 AFSK
AO-27 31 Oct 13:58:18 14:02:40 28° 67° (ENE) 14:07:02 436.795 MHz FM
PCSat 31 Oct 14:00:18 14:02:57 14° 257° (WSW) 14:05:35 145.825 MHz
Oscar 16 31 Oct 14:08:08 14:13:17 85° 75° (ENE) 14:18:27 437.025 USB, Beacon 2401.1428
Saudisat 1A 31 Oct 14:11:30 14:14:22 17° 45° (NE) 14:17:14 436.775 MHz
Gurwin Techsat 1B 31 Oct 14:14:24 14:18:14 21° 65° (ENE) 14:22:05 435.225 FM
TMSAT-1 31 Oct 14:21:15 14:24:41 18° 63° (ENE) 14:28:07 436.925 FM
Uribyol 2 31 Oct 14:41:02 14:46:14 74° 74° (ENE) 14:51:27 436.500 FM
AO-Echo 31 Oct 14:43:02 14:48:00 88° 257° (WSW) 14:53:11 ?
ITAMSAT 1 31 Oct 14:48:59 14:54:12 82° 75° (ENE) 14:59:27 435.822 SSB
AO-7 31 Oct 15:00:33 15:06:07 20° 53° (NE) 15:11:41 29.400 - 29.500 MHz
Oscar 19 31 Oct 15:01:08 15:05:38 30° 263° (W) 15:10:08 437.125 CW, 437.150 USB
UOSAT-12 31 Oct 15:17:23 15:19:43 14° 319° (NW) 15:22:04 437.025 FM, 437.400 FM
JAS-1B 31 Oct 15:25:24 15:30:04 25° 265° (W) 15:34:40 435.800 - 435.900 CW/SSB
AO-27 31 Oct 15:37:19 15:42:01 34° 263° (W) 15:46:45 436.795 MHz FM
Saudisat 1A 31 Oct 15:49:57 15:54:18 58° 242° (WSW) 15:58:37 436.775 MHz
Gurwin Techsat 1B 31 Oct 15:52:43 15:57:49 48° 261° (W) 16:02:58 435.225 FM
TMSAT-1 31 Oct 15:58:54 16:04:06 57° 259° (W) 16:09:20 436.925 FM
ISS 31 Oct 16:07:16 16:09:40 18° 24° (NNE) 16:12:05 145.800 FM
Uribyol 2 31 Oct 16:24:14 16:26:12 12° 270° (W) 16:28:10 436.500 FM
ITAMSAT 1 31 Oct 16:33:19 16:34:16 10° 271° (W) 16:35:12 435.822 SSB
Uosat F 31 Oct 16:34:49 16:39:35 45° 71° (ENE) 16:44:22 435.120 FM
AO-7 31 Oct 16:49:33 16:57:50 89° 252° (WSW) 17:06:10 29.400 - 29.500 MHz
JAS-2 31 Oct 17:37:22 17:43:23 52° 69° (ENE) 17:50:12 435.800 - 435.900 CW/SSB, 435.910 FM
Hamsat 31 Oct 17:41:42 17:45:07 25° 70° (ENE) 17:48:32 145.90 MHz
ISS 31 Oct 17:43:20 17:46:40 70° 221° (SW) 17:49:59 145.800 FM
Uosat F 31 Oct 18:15:00 18:18:33 19° 266° (W) 18:22:07 435.120 FM
OPAL 31 Oct 18:44:17 18:49:14 68° 104° (ESE) 18:54:08 ?
AO-7 31 Oct 18:46:55 18:51:35 16° 269° (W) 18:56:16 29.400 - 29.500 MHz
STRAND 1 31 Oct 19:03:58 19:06:37 14° 91° (E) 19:09:15 ?
Hamsat 31 Oct 19:17:35 19:20:59 24° 265° (W) 19:24:23 145.90 MHz
JAS-2 31 Oct 19:23:47 19:28:49 25° 269° (W) 19:34:22 435.800 - 435.900 CW/SSB, 435.910 FM
KITSAT 1 31 Oct 19:29:32 19:36:35 32° 46° (NE) 19:43:35 435.175 FM
SO-50 31 Oct 19:43:32 19:47:28 24° 48° (NE) 19:51:25 436.795 FM
Oscar 10/S400 31 Oct 19:49:39 20:18:16 61° 193° (SSW) 05:45:40 145.825 - 145.975 CW/USB, Beacon 145.810 USB
SO-67 31 Oct 19:56:54 20:00:17 61° 260° (W) 20:03:42 435.3500 MHz FM
OPAL 31 Oct 20:25:02 20:27:32 14° 300° (WNW) 20:30:01 ?
STRAND 1 31 Oct 20:41:07 20:46:12 63° 287° (WNW) 20:51:15 ?
RS-15 31 Oct 20:47:44 20:57:45 42° 108° (ESE) 21:07:39 29.354 - 29.394 USB, Beacon 29.352 USB
HO-68 31 Oct 20:51:42 20:58:27 47° 67° (ENE) 21:05:14 435.675 MHz FM
SO-50 31 Oct 21:23:35 21:28:12 44° 245° (WSW) 21:32:49 436.795 FM
KITSAT 1 31 Oct 21:24:31 21:32:27 63° 247° (WSW) 21:40:21 435.175 FM
UKube-1 31 Oct 21:25:23 21:28:41 22° 67° (ENE) 21:32:01 145.840 MHz, 145.915 MHz
ZACube-1 31 Oct 21:37:01 21:38:32 12° 64° (ENE) 21:40:02 437.345 MHz
Oscar 11 31 Oct 21:59:06 22:03:13 46° 73° (ENE) 22:07:21 145.825 FM, Beacon 2401.500 USB
UOSAT-12 31 Oct 22:05:26 22:10:02 49° 55° (NE) 22:14:32 437.025 FM, 437.400 FM
FUNcube-1 31 Oct 22:17:00 22:20:58 31° 71° (ENE) 22:24:53 145.950 - 145.970 MHz USB
MaSat-1 31 Oct 22:21:28 22:25:19 51° 112° (ESE) 22:28:49 437.345 MHz
HO-68 31 Oct 22:40:02 22:46:16 32° 263° (W) 22:52:33 435.675 MHz FM
RS-15 31 Oct 22:59:07 23:09:46 54° 309° (NW) 23:20:27 29.354 - 29.394 USB, Beacon 29.352 USB
UKube-1 31 Oct 23:00:48 23:04:40 31° 262° (W) 23:08:34 145.840 MHz, 145.915 MHz
ZACube-1 31 Oct 23:09:51 23:14:22 67° 259° (W) 23:18:49 437.345 MHz
Oscar 11 31 Oct 23:37:22 23:39:37 14° 268° (W) 23:41:53 145.825 FM, Beacon 2401.500 USB
UOSAT-12 31 Oct 23:46:42 23:49:45 17° 251° (WSW) 23:52:46 437.025 FM, 437.400 FM
FUNcube-1 31 Oct 23:53:46 23:57:19 23° 265° (W) 00:00:51 145.950 - 145.970 MHz USB
MaSat-1 31 Oct 23:59:36 00:00:51 11° 304° (NW) 00:02:03 437.345 MHz
PCSat 01 Nov 01:16:52 01:17:35 10° 101° (ESE) 01:18:19 145.825 MHz
RS-15 01 Nov 01:18:07 01:25:28 20° 340° (NNW) 01:32:54 29.354 - 29.394 USB, Beacon 29.352 USB
JAS-1B 01 Nov 01:19:30 01:23:04 14° 91° (E) 01:26:51 435.800 - 435.900 CW/SSB
Oscar 19 01 Nov 01:37:23 01:38:40 11° 90° (E) 01:39:57 437.125 CW, 437.150 USB
Oscar 16 01 Nov 02:21:43 02:26:20 33° 97° (E) 02:30:56 437.025 USB, Beacon 2401.1428
Sapphire 01 Nov 02:33:20 02:38:35 54° 113° (ESE) 02:43:52 437.095 MHz 1200 baud AX-25 AFSK
AO-Echo 01 Nov 02:52:03 02:56:55 35° 97° (E) 03:01:41 ?
PCSat 01 Nov 02:54:44 03:00:09 89° 297° (WNW) 03:05:36 145.825 MHz
Uribyol 2 01 Nov 02:55:51 03:00:21 29° 96° (E) 03:04:48 436.500 FM
ITAMSAT 1 01 Nov 03:03:50 03:08:31 33° 97° (E) 03:13:09 435.822 SSB
JAS-1B 01 Nov 03:06:49 03:14:08 81° 104° (ESE) 03:22:55 435.800 - 435.900 CW/SSB
Oscar 19 01 Nov 03:13:25 03:18:32 77° 285° (WNW) 03:23:39 437.125 CW, 437.150 USB
RS-15 01 Nov 03:36:51 03:43:59 19° 17° (NNE) 03:51:14 29.354 - 29.394 USB, Beacon 29.352 USB
AO-27 01 Nov 03:51:15 03:56:30 85° 285° (WNW) 04:01:42 436.795 MHz FM
Oscar 16 01 Nov 04:01:17 04:05:32 27° 293° (WNW) 04:09:46 437.025 USB, Beacon 2401.1428
Gurwin Techsat 1B 01 Nov 04:10:12 04:15:33 78° 103° (ESE) 04:20:51 435.225 FM
TMSAT-1 01 Nov 04:16:10 04:21:28 65° 101° (ESE) 04:26:42 436.925 FM
Sapphire 01 Nov 04:18:10 04:22:20 22° 311° (NW) 04:26:31 437.095 MHz 1200 baud AX-25 AFSK
OPAL 01 Nov 04:22:31 04:24:37 13° 59° (ENE) 04:26:43 ?
AO-Echo 01 Nov 04:31:02 04:35:29 28° 293° (WNW) 04:39:52 ?
Uribyol 2 01 Nov 04:35:13 04:39:45 31° 292° (WNW) 04:44:16 436.500 FM
PCSat 01 Nov 04:41:24 04:44:20 15° 316° (NW) 04:47:17 145.825 MHz
ITAMSAT 1 01 Nov 04:43:28 04:47:52 28° 293° (WNW) 04:52:15 435.822 SSB
Uosat F 01 Nov 04:45:23 04:48:20 15° 92° (E) 04:51:15 435.120 FM
AO-7 01 Nov 04:53:19 05:00:42 34° 98° (E) 05:08:03 29.400 - 29.500 MHz
JAS-1B 01 Nov 04:59:12 05:04:10 20° 298° (WNW) 05:09:42 435.800 - 435.900 CW/SSB
PANSAT 01 Nov 05:22:50 05:25:27 18° 175° (S) 05:28:05 not established
AO-27 01 Nov 05:34:29 05:35:09 10° 301° (WNW) 05:35:49 436.795 MHz FM
RS-15 01 Nov 05:49:26 06:00:08 48° 48° (NE) 06:11:13 29.354 - 29.394 USB, Beacon 29.352 USB
Gurwin Techsat 1B 01 Nov 05:52:22 05:54:48 13° 299° (WNW) 05:57:15 435.225 FM
Saudisat 1A 01 Nov 05:54:40 05:58:53 51° 117° (ESE) 06:03:09 436.775 MHz
OPAL 01 Nov 05:57:43 06:02:50 80° 255° (WSW) 06:07:55 ?
TMSAT-1 01 Nov 05:57:44 06:00:48 16° 298° (WNW) 06:03:51 436.925 FM
STRAND 1 01 Nov 06:18:17 06:21:49 19° 64° (ENE) 06:25:22 ?
Uosat F 01 Nov 06:22:30 06:27:26 56° 288° (WNW) 06:32:20 435.120 FM
JAS-2 01 Nov 06:32:38 06:40:24 58° 99° (E) 06:47:47 435.800 - 435.900 CW/SSB, 435.910 FM
AO-7 01 Nov 06:45:42 06:53:39 51° 295° (WNW) 07:01:36 29.400 - 29.500 MHz
PANSAT 01 Nov 07:02:30 07:04:59 17° 188° (S) 07:07:29 not established
Hamsat 01 Nov 07:03:32 07:07:45 63° 101° (E) 07:11:58 145.90 MHz
